Regional Weather Roundup
Issued by NWS

Home | Current Version | Previous Version | Graphics & Text | Print | Product List | Glossary On
Versions: 1 2 3 4 5 6 7 8 9 10 11 12 13 14 15 16 17 18 19 20 21 22 23 24 25 26 27
000
ASUS45 KBOU 212007
RWRCO

WEATHER ROUNDUP FOR COLORADO
NATIONAL WEATHER SERVICE DENVER/BOULDER CO
100 PM MST SAT JAN 21 2017

NOTE: "FAIR" INDICATES FEW OR NO CLOUDS BELOW 12000 FEET WITH NO
SIGNIFICANT WEATHER AND/OR OBSTRUCTIONS TO VISIBILITY.

COZ001>005-013-030-031-212100-
...NORTHWEST COLORADO...

CITY           SKY/WX    TMP DP  RH WIND       PRES   REMARKS
CRAIG          CLOUDY    29  19  66 SW5       29.40R WCI  24
HAYDEN         FAIR      28  18  64 SW5       29.38S WCI  23
MEEKER         LGT SNOW  28  26  92 CALM      29.39S VSB 1
MOUNT WERNER   NOT AVBL
STEAMBOAT SPGS CLOUDY    26  18  70 CALM      29.38S
WALDEN           N/A     18  10  73 CALM      29.40R
$$

COZ006>008-011-212100-
...WEST CENTRAL VALLEYS...

CITY           SKY/WX    TMP DP  RH WIND       PRES   REMARKS
GRAND JUNCTION CLOUDY    36  33  89 E5        29.42R
MONTROSE       LGT SNOW  31  29  92 E3        29.44R FOG
EAGLE          PTSUNNY   32  18  55 CALM      29.42F
RIFLE          LGT SNOW  33  29  85 W3        29.41R FOG
DELTA          CLOUDY    38  32  78 CALM      29.42S
NUCLA          CLOUDY    34  30  86 W9        29.46R WCI  26
$$

COZ017>023-064>068-212100-
...SOUTHWEST COLORADO...

CITY           SKY/WX    TMP DP  RH WIND       PRES   REMARKS
DURANGO        MIX PCPN  30  24  78 W23G29    29.43R WCI  17
CORTEZ         SNOW      31  31 100 SW8       29.48R VSB 1/4 WCI  23
PAGOSA SPRINGS LGT SNOW  28  27  94 SW9G18    29.41R WCI  19
TELLURIDE      NOT AVBL
WOLF CREEK PAS CLOUDY    12  12 100 S24       29.37S WCI  -8
$$

COZ009-010-012-014-032>034-037-058>063-212100-
...CENTRAL COLORADO...

CITY           SKY/WX    TMP DP  RH WIND       PRES   REMARKS
ASPEN          PTSUNNY   31  16  54 N6        29.34F WCI  25
BUENA VISTA    CLOUDY    28  18  66 CALM      29.35F
COPPER MTN     NOT AVBL
BERTHOUD PASS  NOT AVBL
COTTONWOOD PAS LGT SNOW  28  19  69 CALM      29.36S
GUNNISON       FAIR      17  11  77 SW5       29.39F WCI  10
KREMMLING      CLOUDY   N/A N/A N/A CALM      29.43S
LEADVILLE      FAIR      17  12  80 S7        29.33F WCI   8
MONARCH PASS     N/A     18  14  86 CALM      29.45S
SALIDA         PTSUNNY   33  19  56 CALM      29.42F
SUNLIGHT       SNOW      21  19  93 MISG      29.40S VSB<1/4
WILKERSON PASS FAIR      21  12  68 SW3       29.38S
$$

COZ069>075-212100-
...SAN LUIS VALLEY/SANGRE DE CRISTO MOUNTAINS...

CITY           SKY/WX    TMP DP  RH WIND       PRES   REMARKS
ALAMOSA        CLOUDY    28  21  75 SE3       29.36S
LA VETA PASS   CLOUDY    30  19  64 NE21G37   29.32F WCI  17
SAGUACHE       FLURRIES  28  23  80 CALM      29.37S
$$

COZ035-036-038>040-212100-
...NORTHERN COLORADO FRONT RANGE...

CITY           SKY/WX    TMP DP  RH WIND       PRES   REMARKS
DENVER INTL AP PTSUNNY   41  23  48 N5        29.35F
DMNS CITY PARK   N/A     39  21  48 N7        29.35F
AURORA         PTSUNNY   38  23  54 N5        29.35F
FRONT RANGE AP PTSUNNY   37  28  70 NE7       29.35F
ERIE MUNI ARPT FAIR      40  26  57 N5        29.36F
BOULDER MUN AP FAIR      39  23  52 N7        29.36S
CENTENNIAL     PTSUNNY   37  22  54 N7        29.34F
BROOMFIELD     PTSUNNY   39  25  56 N7        29.36F
FORT COLLINS   FAIR      39  28  65 NE8       29.37S
LONGMONT       FAIR      43  25  48 NE7       29.38S
$$

COZ041-046-047-076>085-087-088-212100-
...PIKES PEAK/PALMER DIVIDE AND SOUTHERN FOOTHILLS...

CITY           SKY/WX    TMP DP  RH WIND       PRES   REMARKS
COLO. SPRINGS  PTSUNNY   40  22  48 SE9       29.33F
A. F. ACADEMY  PTSUNNY   39  15  36 VRB5      29.31F
SCHRIEVER AFB  NOT AVBL
ELLICOTT       FAIR     N/A N/A N/A SE8       29.32F
FALCON         FAIR      37  20  49 SE5       29.34S
FORT CARSON    NOT AVBL
LIMON          FAIR      40  26  57 SE15      29.35F
MONUMENT HILL  CLOUDY    34  18  51 N5        29.34F WCI  30
TRINIDAD       FAIR      36  25  64 NE10      29.31F
$$

COZ042>045-048>051-090-091-212100-
...NORTHEAST COLORADO...

CITY           SKY/WX    TMP DP  RH WIND       PRES   REMARKS
GREELEY ARPT   FAIR      36  28  73 E5        29.38F
AKRON          FAIR      42  23  46 SE13      29.37F
BURLINGTON     FAIR      41  33  73 SE9       29.37F
WRAY           NOT AVBL
STERLING       FAIR      43  30  61 N3        29.38S
HOLYOKE        FAIR      46  27  46 CALM      29.41S
FORT MORGAN    FAIR      43  29  58 E7        29.38F
$$

COZ086-089-092>099-212100-
...SOUTHEAST COLORADO...

CITY           SKY/WX    TMP DP  RH WIND       PRES   REMARKS
PUEBLO         FAIR      36  31  82 E3        29.33F
LA JUNTA       FAIR      32  30  92 NW9       29.34F WCI  24
LAMAR          FAIR      42  33  70 CALM      29.32F
SPRINGFIELD      N/A     44  30  57 N10       29.28F
$$




USA.gov is the U.S. government's official web portal to all federal, state and local government web resources and services.